Location: Newark
(33.4453°N, 112.0669°W)
Time: 20:24:08
(UTC+00:00)

Vanguard 3 - All Passes

Search period start: 28 February 2020 00:00
Search period end: 09 March 2020 00:00
Orbit: 508 x 3263 km, 33.3° (Epoch: 28 February)

Date Brightness Start Highest point End Pass type
(mag) Time Alt. Az. Time Alt. Az. Time Alt. Az.
28 Feb - 13:06:02 10° SSE 13:07:02 11° SSE 13:08:03 10° SE visible
28 Feb - 15:14:09 10° WSW 15:17:49 57° SSE 15:22:43 10° E daylight
28 Feb - 17:24:43 10° W 17:29:23 89° S 17:37:18 10° E daylight
28 Feb - 19:35:24 10° W 19:41:48 59° SSW 19:53:21 10° ESE daylight
28 Feb - 21:47:29 10° W 21:55:25 30° SSW 22:07:31 10° SSE daylight
29 Feb - 14:01:13 10° SW 14:04:30 30° SSE 14:08:02 10° E daylight
29 Feb - 16:11:38 10° W 16:15:35 87° S 16:21:31 10° E daylight
29 Feb - 18:22:14 10° W 18:27:29 74° SSW 18:36:47 10° ESE daylight
29 Feb - 20:33:22 10° W 20:40:19 39° SSW 20:51:58 10° SE daylight
29 Feb - 22:48:14 10° WSW 22:54:30 16° SSW 23:02:26 10° S daylight
01 Mar - 12:48:45 10° S 12:51:07 15° SSE 12:53:21 10° ESE visible
01 Mar - 14:58:26 10° WSW 15:02:03 66° SSE 15:06:34 10° E daylight
01 Mar - 17:09:11 10° W 17:13:32 86° S 17:20:38 10° E daylight
01 Mar - 19:19:53 10° W 19:25:42 50° SSW 19:35:55 10° SE daylight
01 Mar - 21:32:21 10° WSW 21:39:06 23° SSW 21:48:54 10° SSE daylight
02 Mar - 13:45:09 10° SW 13:48:41 37° SSE 13:52:15 10° E daylight
02 Mar - 15:56:02 10° W 15:59:50 90° SW 16:05:11 10° E daylight
02 Mar - 18:06:42 10° W 18:11:33 65° SSW 18:19:49 10° ESE daylight
02 Mar - 20:18:01 10° W 20:24:10 31° SSW 20:33:58 10° SSE daylight
02 Mar - 22:35:26 10° SW 22:38:11 11° SSW 22:41:14 10° SSW daylight
03 Mar - 12:31:58 10° SSW 12:35:16 21° SSE 12:38:08 10° ESE visible
03 Mar - 14:42:40 10° WSW 14:46:19 74° S 14:50:31 10° E daylight
03 Mar - 16:53:37 10° W 16:57:43 81° S 17:04:04 10° ESE daylight
03 Mar - 19:04:26 10° W 19:09:41 41° SSW 19:18:29 10° SE daylight
03 Mar - 21:17:40 10° WSW 21:22:55 17° SSW 21:29:56 10° S daylight
04 Mar - 11:19:24 10° S 11:21:35 13° SSE 11:23:28 10° SE visible
04 Mar - 13:29:04 10° WSW 13:32:56 47° SSE 13:36:30 10° E visible
04 Mar - 15:40:24 10° W 15:44:06 90° NNW 15:48:57 10° E daylight
04 Mar - 17:51:13 10° W 17:55:39 54° SSW 18:02:55 10° ESE daylight
04 Mar - 20:02:53 10° WSW 20:08:07 24° SSW 20:15:53 10° SSE daylight
05 Mar - 12:15:18 10° SW 12:19:28 28° SSE 12:22:46 10° E visible
05 Mar - 14:26:52 10° W 14:30:37 82° S 14:34:33 10° E daylight
05 Mar - 16:38:03 10° W 16:41:57 73° S 16:47:37 10° ESE daylight
05 Mar - 18:49:05 10° W 18:53:46 32° SSW 19:01:04 10° SE daylight
05 Mar - 21:04:11 10° SW 21:06:50 11° SSW 21:09:53 10° S daylight
06 Mar - 11:01:39 10° SSW 11:05:44 19° SSE 11:08:53 10° ESE visible
06 Mar - 13:12:56 10° WSW 13:17:11 58° SSE 13:20:47 10° E visible
06 Mar - 15:24:44 10° W 15:28:24 88° S 15:32:49 10° E daylight
06 Mar - 17:35:44 10° W 17:39:49 43° SSW 17:46:04 10° SE daylight
06 Mar - 19:48:07 10° WSW 19:52:09 17° SSW 19:57:33 10° SSE daylight
07 Mar - 09:48:44 10° S 09:51:39 13° SSE 09:54:06 10° SE night (unlit)
07 Mar - 11:58:40 10° SW 12:03:41 37° SSE 12:07:19 10° E visible
07 Mar - 14:11:01 10° W 14:14:56 87° S 14:18:42 10° E daylight
07 Mar - 16:22:28 10° W 16:26:11 62° SSW 16:31:13 10° ESE daylight
07 Mar - 18:33:54 10° WSW 18:37:53 24° SSW 18:43:36 10° SSE daylight
08 Mar - 10:44:18 10° SSW 10:49:55 26° SSE 10:53:48 10° ESE visible
08 Mar - 12:56:45 10° WSW 13:01:27 69° S 13:05:08 10° E visible
08 Mar - 15:09:01 10° W 15:12:42 83° S 15:16:48 10° E daylight
08 Mar - 17:20:18 10° W 17:24:00 33° SSW 17:29:15 10° SE daylight
08 Mar - 19:34:26 10° SW 19:36:15 11° SSW 19:38:16 10° S daylight
